Location: Heiligenberg
(48.5381°N, 7.3897°E)
Time: 22:32:26
(UTC+00:00)

Cosmos 1269 Rocket - Pass Details

Date: 26 May 2022
Orbit: 773 x 778 km, 74.1° (Epoch: 03 July)

Event Time Altitude Azimuth Distance (km) Brightness Sun altitude
Rises 00:42:57 0° 338° (NNW) 3,261 8.0 -18.4°
Reaches altitude 10° 00:45:21 10° 341° (NNW) 2,330 7.2 -18.2°
Maximum altitude 00:50:38 70° 65° (ENE) 823 4.2 -17.9°
Enters shadow 00:55:09 14° 148° (SSE) 2,036 5.9 -17.7°
